Meteo pe oră la Aba-el-Baul

Astăzi, 24 Iulie, Sâmbătă

Timp Temperatura Precipitaţii Vânt Presiune Umiditate
00:00 +37°C° 0 mm 2 m/s 742 mmHg 50%
01:00 +36°C° 0 mm 2 m/s 742 mmHg 54%
02:00 +35°C° 0 mm 1 m/s 742 mmHg 59%
03:00 +34°C° 0 mm 1 m/s 742 mmHg 63%
04:00 +34°C° 0 mm 1 m/s 742 mmHg 59%
05:00 +35°C° 0 mm 1 m/s 743 mmHg 55%
06:00 +35°C° 0 mm 1 m/s 743 mmHg 50%
07:00 +38°C° 0 mm 2 m/s 743 mmHg 41%
08:00 +41°C° 0 mm 2 m/s 743 mmHg 32%
09:00 +43°C° 0 mm 2 m/s 743 mmHg 23%
10:00 +45°C° 0 mm 3 m/s 743 mmHg 20%
11:00 +47°C° 0 mm 3 m/s 743 mmHg 17%
12:00 +50°C° 0 mm 3 m/s 742 mmHg 14%
13:00 +50°C° 0 mm 4 m/s 742 mmHg 14%
14:00 +50°C° 0 mm 5 m/s 742 mmHg 15%
15:00 +51°C° 0 mm 6 m/s 741 mmHg 15%
16:00 +48°C° 0 mm 5 m/s 742 mmHg 19%
17:00 +46°C° 0 mm 5 m/s 742 mmHg 23%
18:00 +43°C° 0 mm 4 m/s 742 mmHg 26%
19:00 +42°C° 0 mm 4 m/s 743 mmHg 30%
20:00 +40°C° 0 mm 3 m/s 743 mmHg 34%
21:00 +39°C° 0 mm 3 m/s 744 mmHg 39%
22:00 +38°C° 0 mm 3 m/s 744 mmHg 46%
23:00 +37°C° 0 mm 3 m/s 743 mmHg 54%

Mâine, 25 Iulie, Duminică

Timp Temperatura Precipitaţii Vânt Presiune Umiditate
00:00 +36°C° 0 mm 3 m/s 743 mmHg 62%
01:00 +36°C° 0 mm 3 m/s 743 mmHg 63%
02:00 +36°C° 0 mm 4 m/s 743 mmHg 65%
03:00 +36°C° 0 mm 4 m/s 743 mmHg 66%
04:00 +36°C° 0 mm 3 m/s 743 mmHg 64%
05:00 +36°C° 0 mm 2 m/s 743 mmHg 62%
06:00 +35°C° 0 mm 1 m/s 744 mmHg 60%
07:00 +37°C° 0 mm 1 m/s 744 mmHg 51%
08:00 +40°C° 0 mm 1 m/s 744 mmHg 42%
09:00 +42°C° 0 mm 2 m/s 744 mmHg 33%
10:00 +45°C° 0 mm 2 m/s 744 mmHg 30%
11:00 +46°C° 0 mm 2 m/s 744 mmHg 26%
12:00 +47°C° 0 mm 3 m/s 744 mmHg 22%
13:00 +48°C° 0 mm 3 m/s 743 mmHg 22%
14:00 +48°C° 0 mm 2 m/s 743 mmHg 21%
15:00 +48°C° 0 mm 2 m/s 742 mmHg 21%
16:00 +46°C° 0 mm 3 m/s 742 mmHg 28%
17:00 +44°C° 0 mm 4 m/s 743 mmHg 35%
18:00 +42°C° 0 mm 5 m/s 743 mmHg 41%
19:00 +41°C° 0 mm 5 m/s 743 mmHg 46%
20:00 +40°C° 0 mm 4 m/s 743 mmHg 50%
21:00 +38°C° 0 mm 3 m/s 743 mmHg 54%
22:00 +38°C° 0 mm 2 m/s 743 mmHg 54%
23:00 +38°C° 0 mm 2 m/s 743 mmHg 54%

Poimâine, 26 Iulie, Luni

Timp Temperatura Precipitaţii Vânt Presiune Umiditate
00:00 +36°C° 0 mm 1 m/s 743 mmHg 54%
01:00 +37°C° 0 mm 2 m/s 743 mmHg 54%
02:00 +37°C° 0 mm 2 m/s 743 mmHg 54%
03:00 +37°C° 0 mm 3 m/s 743 mmHg 54%
04:00 +37°C° 0 mm 3 m/s 743 mmHg 56%
05:00 +36°C° 0 mm 2 m/s 744 mmHg 57%
06:00 +36°C° 0 mm 2 m/s 744 mmHg 59%
07:00 +39°C° 0 mm 2 m/s 744 mmHg 49%
08:00 +41°C° 0 mm 2 m/s 744 mmHg 40%
09:00 +44°C° 0 mm 1 m/s 744 mmHg 30%
10:00 +45°C° 0 mm 1 m/s 743 mmHg 27%
11:00 +47°C° 0 mm 2 m/s 743 mmHg 23%
12:00 +49°C° 0 mm 2 m/s 742 mmHg 19%
13:00 +50°C° 0 mm 3 m/s 742 mmHg 20%
14:00 +50°C° 0 mm 4 m/s 742 mmHg 20%
15:00 +50°C° 0 mm 5 m/s 741 mmHg 21%
16:00 +48°C° 0 mm 5 m/s 741 mmHg 25%
17:00 +47°C° 0 mm 5 m/s 741 mmHg 29%
18:00 +45°C° 0 mm 5 m/s 742 mmHg 33%
19:00 +43°C° 0 mm 5 m/s 742 mmHg 36%
20:00 +41°C° 0 mm 4 m/s 742 mmHg 40%
21:00 +40°C° 0 mm 4 m/s 742 mmHg 43%
22:00 +39°C° 0 mm 3 m/s 742 mmHg 45%
23:00 +38°C° 0 mm 3 m/s 742 mmHg 47%

27 Iulie, Marţi

Timp Temperatura Precipitaţii Vânt Presiune Umiditate
00:00 +38°C° 0 mm 2 m/s 742 mmHg 50%
01:00 +37°C° 0 mm 2 m/s 742 mmHg 50%
02:00 +37°C° 0 mm 2 m/s 742 mmHg 51%
03:00 +36°C° 0 mm 1 m/s 741 mmHg 51%
04:00 +36°C° 0 mm 1 m/s 742 mmHg 48%
05:00 +37°C° 0 mm 1 m/s 742 mmHg 44%
06:00 +35°C° 0 mm 0 m/s 742 mmHg 41%
07:00 +40°C° 0 mm 1 m/s 742 mmHg 35%
08:00 +42°C° 0 mm 2 m/s 742 mmHg 29%
09:00 +45°C° 0 mm 2 m/s 742 mmHg 23%
10:00 +47°C° 0 mm 2 m/s 742 mmHg 20%
11:00 +48°C° 0 mm 2 m/s 741 mmHg 17%
12:00 +49°C° 0 mm 2 m/s 741 mmHg 14%
13:00 +50°C° 0 mm 2 m/s 740 mmHg 14%
14:00 +51°C° 0 mm 3 m/s 740 mmHg 14%
15:00 +51°C° 0 mm 3 m/s 739 mmHg 13%
16:00 +48°C° 0 mm 3 m/s 740 mmHg 17%
17:00 +47°C° 0 mm 3 m/s 740 mmHg 20%
18:00 +45°C° 0 mm 3 m/s 740 mmHg 23%
19:00 +43°C° 0 mm 3 m/s 740 mmHg 27%
20:00 +42°C° 0 mm 3 m/s 740 mmHg 32%
21:00 +39°C° 0 mm 3 m/s 741 mmHg 36%
22:00 +39°C° 0 mm 3 m/s 740 mmHg 37%
23:00 +38°C° 0 mm 2 m/s 740 mmHg 38%

28 Iulie, Miercuri

Timp Temperatura Precipitaţii Vânt Presiune Umiditate
00:00 +36°C° 0 mm 1 m/s 740 mmHg 39%
01:00 +37°C° 0 mm 2 m/s 740 mmHg 38%
02:00 +37°C° 0 mm 2 m/s 740 mmHg 36%
03:00 +37°C° 0 mm 2 m/s 740 mmHg 35%
04:00 +37°C° 0 mm 2 m/s 740 mmHg 34%
05:00 +38°C° 0 mm 2 m/s 740 mmHg 33%
06:00 +38°C° 0 mm 2 m/s 740 mmHg 32%
07:00 +40°C° 0 mm 1 m/s 740 mmHg 27%
08:00 +43°C° 0 mm 1 m/s 740 mmHg 22%
09:00 +45°C° 0 mm 1 m/s 740 mmHg 17%
10:00 +47°C° 0 mm 1 m/s 740 mmHg 14%
11:00 +49°C° 0 mm 2 m/s 740 mmHg 12%
12:00 +52°C° 0 mm 3 m/s 739 mmHg 10%
13:00 +52°C° 0 mm 3 m/s 739 mmHg 10%
14:00 +52°C° 0 mm 3 m/s 739 mmHg 10%
15:00 +53°C° 0 mm 3 m/s 738 mmHg 10%
16:00 +50°C° 0 mm 4 m/s 739 mmHg 15%
17:00 +48°C° 0 mm 4 m/s 739 mmHg 20%
18:00 +46°C° 0 mm 5 m/s 739 mmHg 25%
19:00 +43°C° 0 mm 4 m/s 739 mmHg 32%
20:00 +41°C° 0 mm 4 m/s 740 mmHg 39%
21:00 +40°C° 0 mm 4 m/s 740 mmHg 45%
22:00 +38°C° 0 mm 3 m/s 740 mmHg 46%
23:00 +38°C° 0 mm 2 m/s 740 mmHg 47%

29 Iulie, Joi

Timp Temperatura Precipitaţii Vânt Presiune Umiditate
00:00 +37°C° 0 mm 2 m/s 740 mmHg 47%
01:00 +37°C° 0 mm 2 m/s 740 mmHg 49%
02:00 +37°C° 0 mm 2 m/s 739 mmHg 50%
03:00 +36°C° 0 mm 2 m/s 739 mmHg 52%
04:00 +36°C° 0 mm 3 m/s 740 mmHg 53%
05:00 +36°C° 0 mm 3 m/s 740 mmHg 53%
06:00 +36°C° 0 mm 3 m/s 741 mmHg 54%
07:00 +39°C° 0 mm 3 m/s 741 mmHg 43%
08:00 +42°C° 0 mm 2 m/s 741 mmHg 32%
09:00 +45°C° 0 mm 2 m/s 741 mmHg 22%
10:00 +47°C° 0 mm 2 m/s 741 mmHg 19%
11:00 +49°C° 0 mm 2 m/s 741 mmHg 16%
12:00 +51°C° 0 mm 3 m/s 740 mmHg 13%
13:00 +51°C° 0 mm 4 m/s 740 mmHg 15%
14:00 +50°C° 0 mm 5 m/s 740 mmHg 17%
15:00 +51°C° 0 mm 6 m/s 740 mmHg 19%
16:00 +48°C° 0 mm 6 m/s 740 mmHg 22%
17:00 +46°C° 0 mm 5 m/s 740 mmHg 25%
18:00 +43°C° 0 mm 4 m/s 740 mmHg 28%
19:00 +42°C° 0 mm 4 m/s 741 mmHg 32%
20:00 +41°C° 0 mm 4 m/s 741 mmHg 37%
21:00 +38°C° 0 mm 3 m/s 741 mmHg 41%
22:00 +38°C° 0 mm 3 m/s 741 mmHg 40%
23:00 +38°C° 0 mm 2 m/s 741 mmHg 39%
Arată mai mult

Formular de consimțământ

Meteoprog și furnizorii noștri de servicii pot stoca și accesa date personale, precum cookies, identificatori de dispozitiv sau alte tehnologii similare pe dispozitivul dumneavoastră și procesa astfel de date pentru a personaliza conținutul și reclamele, dar și pentru a oferi caracteristici de social media și pentru a analiza traficul.

  • Stocarea și/sau accesarea informațiilor pe dispozitivul dumneavoastră

    Cookies, identificatori de dispozitiv sau alte informații pot fi stocate sau accesate pe dispozitiv în scopurile indicate mai sus.

  • Reclame și conținut personalizat, evaluarea reclamelor și a conținutului, informații despre audiențe și dezvoltarea produselor

    Reclamele și conținutul pot fi personalizate pe baza unui profil. Pot fi adăugate date suplimentare pentru a personaliza mai bine reclamele și conținutul. Performanța reclamelor și conținutului poate fi măsurată. Pot fi obținute informații despre utilizatorii care au văzut reclamele și conținutul. Aceste date pot fi utilizate pentru a dezvolta sau îmbunătăți experiența utilizatorilor, sistemele și software-ul.

Dând clic pe ‘Sunt de acord’, permiteți utilizarea cookie-urilor menționate, a identificatorilor de dispozitiv, balizelor web sau altor tehnologii similare. Setările pot fi modificate din browser-ul dispozitivului dumneavoastră.

În anumite scopuri, interesele legitime pot prima asupra consimțământului. Puteți citi mai multe informații în acest sens în Politica privind Confidențialitatea Datelor și Cookie.